Flag for Russia Weather past 2 weeks in Bryansk, Russia

Now
54 °F

Clear.


Feels Like: 54 °F
Forecast: 46 / 69 °F
Wind: 1 mph from North

Location: Brjansk

Current Time: Sep 1, 2015 at 12:51:07 AM

Latest Report: Sep 1, 2015 at 12:00 AM


Visibility: 10 mi

Pressure: 30.01 "Hg

Humidity: 72%

Dew point: 45 °F

Location of BryanskLocation

Historic Weather in Bryansk — Graph

°F

Bryansk temperature yesterday

Maximum temperature yesterday: 73 °F (at 2:00 PM)
Minimum temperature yesterday: 50 °F (at 4:00 AM)
Average temperature yesterday: 61 °F

Past Weeks' High & Low Weather Summary

 TemperatureHumidityPressure
High81 °F (Aug 26, 1:00 PM)100% (Aug 17, 3:00 AM)30.36 "Hg (Aug 17, 3:00 AM)
Low45 °F (Aug 17, 3:00 AM)25% (Aug 25, 1:30 PM)29.95 "Hg (Aug 29, 4:00 AM)
Average64 °F59%30.15 "Hg
* Reported Aug 16 11:00 PM — Aug 31 11:00 PM, Bryansk, Weather by CustomWeather, © 2015

Note: Actual official high and low records may vary slightly from our data, if they occured in-between our weather recording intervals... More about our weather records

Advertising

Bryansk weather history for previous 24 hours

 ConditionsComfort  
Time TempWeatherWind HumidityBarometerVisibility
11:00 PM
Mon, Aug 31
55 °FClear.3 mph67%30.01 "Hg10 mi
10:00 PM57 °FClear.3 mph63%30.01 "Hg10 mi
9:00 PM57 °FClear.3 mph67%30.04 "Hg10 mi
8:00 PM59 °FSunny.6 mph63%30.01 "Hg10 mi
7:00 PM66 °FSunny.6 mph49%30.01 "Hg10 mi
6:00 PM70 °FSunny.8 mph46%30.01 "Hg10 mi
5:00 PM72 °FPartly sunny.10 mph36%30.01 "HgN/A
4:00 PM72 °FSunny.10 mph38%30.01 "Hg10 mi
3:00 PM70 °FPartly sunny.13 mph40%30.01 "HgN/A
2:00 PM73 °FPartly sunny.10 mph38%30.04 "HgN/A
1:00 PM70 °FSunny.13 mph43%30.04 "Hg10 mi
12:00 PM70 °FSunny.10 mph46%30.04 "Hg10 mi
11:00 AM68 °FScattered clouds.10 mph53%30.07 "HgN/A
10:00 AM66 °FSunny.10 mph56%30.07 "Hg10 mi
9:00 AM61 °FSunny.6 mph68%30.07 "Hg10 mi
8:00 AM57 °FSunny.6 mph72%30.07 "Hg10 mi
7:00 AM52 °FSunny.6 mph82%30.07 "Hg10 mi
6:00 AM50 °FClear.6 mph82%30.07 "Hg10 mi
5:00 AM52 °FClear.6 mph77%30.07 "Hg10 mi
4:00 AM50 °FClear.6 mph82%30.07 "Hg10 mi
3:00 AM52 °FClear.3 mph77%30.07 "Hg10 mi
2:00 AM54 °FClear.3 mph72%30.07 "Hg10 mi
1:00 AM55 °FClear.3 mph67%30.07 "Hg10 mi
12:00 AM57 °FClear.6 mph63%30.07 "Hg10 mi
Weather by CustomWeather, © 2015

See weather overviewHow to use our weather pages